Location: G�ppingen
(48.7089°N, 9.6563°E)
Time: 08:48:23
(UTC+01:00)

OTV 5 (USA 277) - Visible Passes

Search period start: 25 February 2018 00:00
Search period end: 07 March 2018 00:00
Orbit: 404 x 417 km, 43.0° (Epoch: 07 September)

Date Brightness Start Highest point End Pass type
(mag) Time Alt. Az. Time Alt. Az. Time Alt. Az.
25 Feb ? 05:47:48 17° SW 05:49:29 26° S 05:52:18 10° ESE visible
26 Feb ? 04:59:06 21° SSE 04:59:06 21° SSE 05:01:13 10° ESE visible
26 Feb ? 06:32:28 10° WSW 06:35:23 30° S 06:38:19 10° ESE visible
27 Feb ? 05:43:07 22° SW 05:44:26 30° S 05:47:22 10° ESE visible
28 Feb ? 04:54:23 24° SE 04:54:23 24° SE 04:56:23 10° ESE visible
28 Feb ? 06:27:33 10° WSW 06:30:19 25° SSW 06:33:07 10° SE visible
01 Mar ? 05:38:23 23° SW 05:39:24 28° S 05:42:16 10° SE visible
02 Mar ? 04:49:40 23° SE 04:49:40 23° SE 04:51:22 10° ESE visible
02 Mar ? 06:22:54 10° WSW 06:25:12 18° SSW 06:27:31 10° SSE visible
03 Mar ? 05:33:44 21° SSW 05:34:18 21° SSW 05:36:54 10° SE visible
04 Mar ? 04:45:06 16° SSE 04:45:06 16° SSE 04:46:08 10° SE visible
04 Mar ? 06:19:17 10° SW 06:19:58 11° SSW 06:20:41 10° SSW visible
05 Mar ? 05:29:19 14° SSW 05:29:19 14° SSW 05:30:56 10° S visible
